Regional Weather Roundup
Issued by NWS

Home | Current Version | Previous Version | Graphics & Text | Print | Product List | Glossary On
Versions: 1 2 3 4 5 6 7 8 9 10 11 12 13 14 15 16 17 18 19 20 21 22 23 24 25 26 27 28 29 30 31 32 33 34 35 36 37 38 39 40 41 42 43 44 45 46 47 48 49 50
504
ASUS45 KABQ 271301
RWRNM
NEW MEXICO REGIONAL WEATHER ROUNDUP
NATIONAL WEATHER SERVICE ALBUQUERQUE NM
700 AM MDT WED JUL 27 2016

NOTE: "FAIR" MEANS FEW OR NO CLOUDS BELOW 12,000 FEET AGL WITH NO
       SIGNIFICANT WEATHER OR OBSTRUCTIONS TO VISION.

      THIS PRODUCT IS RELEASED AS TWO VERSIONS.  ONE VERSION NEAR
      THE TOP OF THE HOUR CONTAINING PRELIMINARY DATA FROM ALBUQUERQUE
      AND OTHER STATIONS.  A FINAL VERSION WITH ADDITIONAL DATA IS
      ISSUED ABOUT 10 MINUTES AFTER THE HOUR.

NMZ501-503-504-510>518-271400-
NORTHWEST PLATEAU/NORTHCENTRAL MOUNTAINS

CITY           SKY/WX    TMP DP  RH WIND       PRES   REMARKS
FARMINGTON     FAIR      62  47  57 E6        30.23R
LOS ALAMOS     FAIR      64  49  57 CALM      30.37R
SANTA FE       FAIR      62  55  77 N5        30.29S
TAOS           FAIR      55  34  44 CALM      30.38R
ANGEL FIRE     FOG       45  44  98 CALM      30.47S VSB 1/4

$$
NMZ402-403-502-505>509-271400-
WESTCENTRAL MOUNTAINS/SOUTHWEST MOUNTAINS

CITY           SKY/WX    TMP DP  RH WIND       PRES   REMARKS
GALLUP         FAIR      59  47  64 NE5       30.30R
GRANTS         FAIR      55  51  87 CALM      30.32S
SILVER CITY    MOCLDY    68  56  64 N5        30.24R

$$
NMZ407-409-411-412-271400-
SOUTHERN DESERTS

CITY           SKY/WX    TMP DP  RH WIND       PRES   REMARKS
LORDSBURG      CLOUDY    68  63  83 S3        30.15R
DEMING         FAIR      70  63  78 NE3       30.16R
LAS CRUCES     FAIR      69  62  76 SW8       30.16S
HOLLOMAN AFB   MOCLDY    67  66  97 N7        30.12R
ALAMOGORDO     CLOUDY    68  66  94 N7        30.15R
T OR C         FAIR      71  57  61 NE3       30.17R

$$
NMZ519>523-271400-
CENTRAL VALLEYS/CENTRAL HIGHLANDS

CITY           SKY/WX    TMP DP  RH WIND       PRES   REMARKS
ALBUQUERQUE    FAIR      71  60  68 NE3       30.24R
DOUBLE EAGLE   PTCLDY    63  57  82 VRB5      30.27R
MORIARTY ARPT  FAIR      58  55  89 NW5       30.31R
CLINES CORNERS FAIR      61  54  77 NW7       30.34R
BELEN          FAIR      66  61  82 CALM      30.22R
SOCORRO        FAIR      68  61  78 CALM      30.19S

$$
NMZ524>526-539-540-271400-
SOUTHCENTRAL MOUNTAINS

CITY           SKY/WX    TMP DP  RH WIND       PRES   REMARKS
RUIDOSO          N/A     61  54  77 NW5       30.33R

$$
NMZ527>531-271400-
NORTHEAST HIGHLANDS/NORTHEAST PLAINS

CITY           SKY/WX    TMP DP  RH WIND       PRES   REMARKS
LAS VEGAS      FAIR      57  50  77 NE3       30.32R
RATON          FAIR      59  52  77 N7        30.27R
CLAYTON        FAIR      65  63  93 N6        30.18R

$$
NMZ532>537-271400-
EASTCENTRAL PLAINS

CITY           SKY/WX    TMP DP  RH WIND       PRES   REMARKS
TUCUMCARI      FAIR      71  63  75 W6        30.10S
CANNON AFB     FAIR      72  64  75 W5        30.14R
CLOVIS AIRPORT FAIR      68  61  77 CALM      30.14S

$$
NMZ028-029-538-271400-
SOUTHEAST PLAINS

CITY           SKY/WX    TMP DP  RH WIND       PRES   REMARKS
ROSWELL        FAIR      70  63  78 N5        30.10R
ARTESIA        FAIR      73  63  68 CALM      30.09R
CARLSBAD       FAIR      72  66  81 S3        30.07R
HOBBS          SUNNY     68  68 100 CALM      30.12R


$$




USA.gov is the U.S. government's official web portal to all federal, state and local government web resources and services.